Weather History for Grayling, MI

Change the Weather History Date:

Saturday, July 20, 2013

  Actual Average (KHTL) Record (KHTL)
Temperature  
Mean Temperature 62 °F 67 °F  
Max Temperature 77 °F 80 °F 99 °F (1926)
Min Temperature 48 °F 55 °F 32 °F (1941)
Degree Days  
Heating Degree Days 2 1  
Month to date heating degree days 32  
Since 1 June heating degree days 156  
Since 1 July heating degree days 32  
Cooling Degree Days 0 4  
Month to date cooling degree days 77  
Year to date cooling degree days 152  
Since 1 June cooling degree days 136  
Growing Degree Days 12 (Base 50)    
Moisture  
Dew Point 53 °F    
Average Humidity 68    
Maximum Humidity 100    
Minimum Humidity 34    
Precipitation  
Precipitation 0.00 in 0.09 in 1.19 in (1980)
Month to date precipitation 1.69  
Year to date precipitation 14.65  
Sea Level Pressure  
Sea Level Pressure 29.89 in    
Wind  
Wind Speed 4 mph (NW)    
Max Wind Speed 17 mph    
Max Gust Speed 23 mph    
Visibility 9 miles    
Events Fog    
T = Trace of Precipitation, MM = Missing Value Source: NWS Daily Summary

Daily Weather History Graph

Daily Weather History Graph

Search for Another Location

Airport:

Trip Planner

Search our weather history database for the weather conditions in past years. The results will help you decide how hot, cold, wet, or windy it might be!

Date:

Astronomy

Jul. 20, 2013 Rise Set
Actual Time 6:12 AM EDT 9:17 PM EDT
Civil Twilight 5:37 AM EDT 9:52 PM EDT
Nautical Twilight 4:52 AM EDT 10:36 PM EDT
Astronomical Twilight 3:58 AM EDT 11:30 PM EDT
Moon 7:19 PM EDT (7/20) 3:51 AM EDT (7/20)
Length of Visible Light 16h 14m
Length of Day
15h 04m
Waxing Gibbous, 93% of the Moon is Illuminated
Jul 20
Waxing Gibbous
Jul 22
Full
Jul 29
Last Quarter
Aug 6
New
Aug 14
First Quarter

Hourly Weather History & Observations

Time (EDT) Temp. Dew Point Humidity Pressure Visibility Wind Dir Wind Speed Gust Speed Precip Events Conditions
12:15 AM 68.5 °F 61.5 °F 78% 29.80 in 10.0 mi Calm Calm - N/A   Overcast
12:35 AM 68.5 °F 62.8 °F 82% 29.79 in 10.0 mi Calm Calm - N/A   Mostly Cloudy
12:54 AM 67.8 °F 64.2 °F 88% 29.80 in 10.0 mi Calm Calm - N/A   Scattered Clouds
1:15 AM 64.0 °F 62.1 °F 93% 29.81 in 10.0 mi Calm Calm - N/A   Clear
1:35 AM 62.1 °F 61.0 °F 96% 29.81 in 10.0 mi Calm Calm - N/A   Clear
1:54 AM 61.2 °F 60.1 °F 96% 29.81 in 10.0 mi Calm Calm - N/A   Clear
2:15 AM 60.3 °F 60.3 °F 100% 29.81 in 10.0 mi Calm Calm - N/A   Clear
2:35 AM 59.2 °F 59.2 °F 100% 29.81 in 10.0 mi Calm Calm - N/A   Clear
2:54 AM 58.5 °F 58.5 °F 100% 29.81 in 2.0 mi Calm Calm - N/A   Clear
3:15 AM 58.5 °F 58.5 °F 100% 29.81 in 0.5 mi Calm Calm - N/A Fog Fog
3:35 AM 57.7 °F 57.7 °F 100% 29.81 in 0.5 mi Calm Calm - N/A Fog Fog
3:54 AM 57.2 °F 57.2 °F 100% 29.81 in 1.8 mi Calm Calm - N/A   Mist
4:15 AM 55.9 °F 55.9 °F 100% 29.80 in 5.0 mi Calm Calm - N/A   Clear
4:34 AM 55.6 °F 55.6 °F 100% 29.81 in 10.0 mi Calm Calm - N/A   Clear
4:54 AM 55.9 °F 55.9 °F 100% 29.81 in 2.5 mi Calm Calm - N/A   Clear
5:15 AM 55.0 °F 55.0 °F 100% 29.80 in 0.8 mi Calm Calm - N/A   Mist
5:34 AM 53.6 °F 53.6 °F 100% 29.80 in 10.0 mi Calm Calm - N/A   Clear
5:54 AM 53.6 °F 53.6 °F 100% 29.80 in 10.0 mi West 3.5 mph - N/A   Clear
6:15 AM 54.9 °F 54.9 °F 100% 29.81 in 5.0 mi Calm Calm - N/A   Clear
6:34 AM 54.7 °F 54.7 °F 100% 29.81 in 10.0 mi Calm Calm - N/A   Clear
6:55 AM 55.9 °F 55.9 °F 100% 29.82 in 1.2 mi WNW 3.5 mph - N/A   Mist
7:15 AM 58.5 °F 58.5 °F 100% 29.82 in 10.0 mi Calm Calm - N/A   Clear
7:34 AM 61.0 °F 60.8 °F 99% 29.82 in 10.0 mi WSW 3.5 mph - N/A   Clear
7:55 AM 63.3 °F 60.1 °F 89% 29.84 in 10.0 mi West 3.5 mph - N/A   Clear
8:15 AM 66.2 °F 60.3 °F 81% 29.84 in 10.0 mi WSW 3.5 mph - N/A   Clear
8:34 AM 68.5 °F 61.0 °F 77% 29.85 in 10.0 mi WSW 4.6 mph - N/A   Clear
8:55 AM 68.5 °F 60.6 °F 76% 29.86 in 10.0 mi West 5.8 mph - N/A   Scattered Clouds
9:15 AM 68.5 °F 61.5 °F 78% 29.87 in 10.0 mi Calm Calm - N/A   Mostly Cloudy
9:34 AM 73.2 °F 64.0 °F 73% 29.87 in 10.0 mi West 9.2 mph - N/A   Scattered Clouds
9:55 AM 73.6 °F 62.6 °F 68% 29.87 in 10.0 mi WNW 4.6 mph - N/A   Scattered Clouds
10:15 AM 73.6 °F 59.9 °F 62% 29.87 in 10.0 mi WNW 5.8 mph - N/A   Scattered Clouds
10:34 AM 73.6 °F 58.3 °F 59% 29.87 in 10.0 mi WNW 5.8 mph - N/A   Scattered Clouds
10:55 AM 74.7 °F 57.6 °F 55% 29.87 in 10.0 mi NW 4.6 mph - N/A   Scattered Clouds
11:14 AM 76.1 °F 57.0 °F 51% 29.87 in 10.0 mi West 5.8 mph - N/A   Scattered Clouds
11:35 AM 76.1 °F 55.2 °F 48% 29.88 in 10.0 mi WNW 5.8 mph - N/A   Scattered Clouds
11:55 AM 76.1 °F 54.7 °F 47% 29.89 in 10.0 mi WNW 8.1 mph 16.1 mph N/A   Scattered Clouds
12:14 PM 76.1 °F 55.0 °F 48% 29.89 in 10.0 mi North 11.5 mph 16.1 mph N/A   Scattered Clouds
12:35 PM 76.1 °F 54.7 °F 47% 29.89 in 10.0 mi NW 15.0 mph 19.6 mph N/A   Mostly Cloudy
12:55 PM 76.1 °F 56.1 °F 50% 29.90 in 10.0 mi NW 10.4 mph 18.4 mph N/A   Scattered Clouds
1:14 PM 75.7 °F 54.5 °F 48% 29.90 in 10.0 mi West 6.9 mph - N/A   Scattered Clouds
1:35 PM 77.0 °F 52.0 °F 42% 29.90 in 10.0 mi NW 12.7 mph 19.6 mph N/A   Scattered Clouds
1:54 PM 76.1 °F 50.7 °F 41% 29.90 in 10.0 mi NNW 17.3 mph 21.9 mph N/A   Scattered Clouds
2:15 PM 76.3 °F 50.4 °F 40% 29.91 in 10.0 mi NW 16.1 mph 23.0 mph N/A   Scattered Clouds
2:35 PM 76.1 °F 49.8 °F 40% 29.91 in 10.0 mi NW 15.0 mph 23.0 mph N/A   Scattered Clouds
2:54 PM 76.1 °F 50.0 °F 40% 29.91 in 10.0 mi NNW 10.4 mph 21.9 mph N/A   Scattered Clouds
3:15 PM 75.4 °F 50.2 °F 41% 29.91 in 10.0 mi NNW 9.2 mph 19.6 mph N/A   Clear
3:35 PM 75.6 °F 48.9 °F 39% 29.91 in 10.0 mi NNW 15.0 mph 20.7 mph N/A   Clear
3:54 PM 73.6 °F 47.3 °F 39% 29.92 in 10.0 mi NW 10.4 mph 19.6 mph N/A   Clear
4:14 PM 73.8 °F 48.9 °F 41% 29.92 in 10.0 mi North 9.2 mph 17.3 mph N/A   Clear
4:35 PM 73.6 °F 48.4 °F 41% 29.92 in 10.0 mi NNW 12.7 mph 19.6 mph N/A   Clear
4:54 PM 73.6 °F 48.4 °F 41% 29.93 in 10.0 mi NW 13.8 mph 21.9 mph N/A   Clear
5:15 PM 73.6 °F 48.0 °F 40% 29.93 in 10.0 mi NNW 11.5 mph 16.1 mph N/A   Clear
5:35 PM 72.9 °F 48.2 °F 42% 29.93 in 10.0 mi NW 11.5 mph 17.3 mph N/A   Clear
5:54 PM 73.6 °F 45.7 °F 37% 29.93 in 10.0 mi NNW 10.4 mph 16.1 mph N/A   Clear
6:15 PM 72.0 °F 43.7 °F 36% 29.93 in 10.0 mi NW 10.4 mph 17.3 mph N/A   Clear
6:35 PM 72.9 °F 42.8 °F 34% 29.94 in 10.0 mi NNW 8.1 mph - N/A   Clear
6:54 PM 71.1 °F 43.7 °F 37% 29.94 in 10.0 mi North 12.7 mph - N/A   Clear
7:15 PM 68.7 °F 43.3 °F 40% 29.94 in 10.0 mi NNW 11.5 mph 16.1 mph N/A   Clear
7:35 PM 68.5 °F 42.8 °F 39% 29.96 in 10.0 mi NNW 10.4 mph - N/A   Clear
7:54 PM 68.5 °F 42.3 °F 38% 29.96 in 10.0 mi NNW 9.2 mph - N/A   Clear
8:15 PM 68.2 °F 42.4 °F 39% 29.96 in 10.0 mi NNW 8.1 mph - N/A   Clear
8:35 PM 64.8 °F 40.5 °F 41% 29.96 in 10.0 mi NNW 8.1 mph - N/A   Clear
8:54 PM 61.3 °F 41.7 °F 49% 29.97 in 10.0 mi NW 5.8 mph - N/A   Clear
9:15 PM 58.5 °F 42.4 °F 55% 29.97 in 10.0 mi NW 4.6 mph - N/A   Clear
9:35 PM 58.5 °F 43.3 °F 57% 29.99 in 10.0 mi Calm Calm - N/A   Clear
9:54 PM 56.3 °F 43.2 °F 61% 29.99 in 10.0 mi WNW 3.5 mph - N/A   Clear
10:15 PM 55.9 °F 44.6 °F 66% 30.00 in 10.0 mi Calm Calm - N/A   Clear
10:34 PM 53.6 °F 45.5 °F 74% 30.00 in 10.0 mi Calm Calm - N/A   Clear
10:54 PM 53.6 °F 45.9 °F 75% 30.01 in 10.0 mi Calm Calm - N/A   Clear
11:15 PM 50.5 °F 46.4 °F 86% 30.01 in 10.0 mi Calm Calm - N/A   Clear
11:34 PM 48.4 °F 45.3 °F 89% 30.01 in 10.0 mi Calm Calm - N/A   Clear
11:55 PM 48.4 °F 46.2 °F 92% 30.01 in 10.0 mi Calm Calm - N/A   Clear